Temp
-4 -5 -4 -4 -4 -4 -4 -4 -5 -5 -5 -5 -5 -5 -5 -5 -5 -5 -5 -6 -6 -6 -6 -6 -6 -6 -6 -6 -6 -6 -6 -7 -7 -7 -7 -7 -7 -7 -7 -7 -7 -7
-4 -4 -4 -4 -4 -4 -4 -4 -4 -5 -5 -5 -5 -5 -5 -5 -5 -5 -5 -5 -6 -6 -6 -6 -6 -6 -6 -6 -6 -6 -6 -6 -7 -7 -7 -7 -7 -7 -7 -7 -7 -7
-4 -4 -4 -4 -4 -4 -4 -4 -4 -4 -5 -5 -5 -5 -5 -5 -5 -5 -5 -5 -5 -6 -6 -6 -6 -6 -6 -6 -6 -6 -6 -6 -7 -7 -7 -7 -7 -7 -7 -7 -8 -8
-4 -4 -4 -4 -4 -4 -4 -4 -4 -4 -5 -5 -5 -5 -5 -5 -5 -5 -5 -5 -5 -5 -6 -6 -6 -6 -6 -6 -6 -6 -6 -7 -7 -7 -7 -7 -7 -7 -8 -8 -8 -8
-4 -4 -4 -4 -4 -4 -4 -4 -4 -5 -5 -4 -4 -4 -5 -5 -5 -5 -5 -5 -5 -5 -5 -6 -6 -6 -6 -6 -6 -6 -6 -7 -7 -7 -7 -7 -7 -8 -8 -8 -8 -8
-4 -4 -4 -4 -4 -4 -4 -4 -4 -5 -5 -4 -4 -4 -4 -4 -5 -5 -5 -5 -5 -5 -5 -5 -5 -6 -6 -6 -6 -6 -6 -6 -7 -7 -7 -7 -7 -8 -8 -8 -8 -9
-4 -4 -4 -4 -4 -4 -4 -4 -5 -5 -4 -4 -4 -4 -4 -4 -4 -5 -5 -5 -5 -5 -5 -5 -5 -6 -6 -6 -6 -6 -6 -6 -6 -7 -7 -7 -7 -8 -8 -8 -8 -9
-4 -4 -4 -3 -4 -4 -4 -4 -5 -4 -4 -4 -4 -4 -4 -4 -4 -4 -5 -5 -5 -5 -5 -6 -6 -6 -6 -6 -6 -6 -6 -6 -6 -7 -7 -7 -7 -7 -8 -8 -8 -9
-4 -4 -4 -4 -4 -4 -4 -4 -4 -4 -4 -4 -4 -4 -4 -4 -4 -5 -5 -5 -5 -5 -6 -6 -6 -6 -6 -6 -6 -6 -6 -6 -6 -7 -7 -7 -7 -7 -8 -8 -8 -9
-4 -4 -4 -4 -4 -4 -4 -4 -4 -4 -4 -4 -4 -4 -4 -4 -4 -5 -5 -5 -6 -6 -6 -6 -6 -6 -6 -6 -6 -6 -6 -7 -7 -7 -7 -7 -7 -7 -8 -8 -8 -8
-4 -4 -4 -4 -4 -4 -4 -4 -4 -4 -4 -4 -4 -4 -4 -4 -5 -5 -5 -6 -6 -6 -6 -6 -6 -6 -6 -6 -7 -7 -7 -7 -7 -7 -7 -7 -7 -7 -7 -8 -8 -8
-4 -4 -4 -5 -5 -5 -4 -4 -4 -4 -4 -4 -4 -4 -4 -5 -5 -5 -5 -6 -6 -6 -6 -6 -6 -6 -6 -6 -7 -7 -7 -7 -7 -7 -7 -7 -7 -7 -7 -8 -8 -8
-4 -4 -4 -5 -5 -5 -5 -4 -4 -4 -4 -4 -4 -4 -5 -5 -5 -5 -5 -5 -5 -5 -6 -6 -6 -6 -6 -6 -6 -7 -7 -7 -7 -7 -7 -7 -7 -7 -8 -8 -8 -8
-5 -5 -5 -5 -5 -5 -4 -4 -4 -4 -4 -4 -4 -5 -5 -5 -5 -5 -5 -5 -5 -5 -6 -5 -6 -6 -6 -6 -6 -6 -7 -7 -7 -8 -8 -8 -8 -8 -8 -8 -8 -7
-5 -5 -5 -5 -5 -4 -4 -4 -4 -5 -5 -4 -5 -5 -5 -5 -5 -5 -5 -5 -5 -5 -5 -5 -6 -6 -6 -6 -6 -6 -6 -7 -7 -7 -8 -8 -8 -8 -8 -7 -7 -7
-5 -5 -5 -5 -5 -4 -4 -5 -5 -5 -5 -5 -5 -5 -5 -5 -5 -5 -5 -5 -5 -5 -5 -5 -6 -6 -5 -5 -5 -6 -6 -6 -7 -7 -7 -7 -7 -7 -7 -7 -7 -7
-5 -5 -5 -5 -5 -5 -5 -5 -5 -5 -5 -5 -5 -5 -5 -5 -5 -5 -6 -5 -5 -5 -6 -6 -6 -6 -5 -5 -5 -6 -6 -6 -6 -7 -7 -7 -7 -7 -7 -7 -7 -8
-6 -6 -6 -5 -5 -5 -5 -5 -5 -5 -5 -5 -5 -6 -6 -5 -6 -6 -6 -5 -5 -6 -6 -6 -6 -6 -6 -5 -5 -6 -6 -6 -6 -6 -7 -7 -7 -7 -7 -7 -7 -8
-6 -6 -6 -6 -6 -6 -6 -6 -6 -6 -6 -6 -6 -6 -6 -6 -6 -6 -6 -5 -6 -6 -6 -6 -6 -6 -6 -6 -6 -6 -6 -6 -6 -6 -7 -7 -7 -7 -7 -8 -8 -8
-7 -7 -7 -7 -7 -7 -6 -6 -6 -6 -6 -6 -6 -6 -6 -6 -6 -6 -6 -6 -6 -6 -6 -6 -6 -6 -6 -6 -6 -6 -6 -6 -6 -6 -7 -7 -7 -7 -8 -8 -8 -8
-7 -7 -7 -7 -7 -7 -7 -7 -7 -7 -6 -6 -6 -6 -6 -6 -6 -6 -6 -6 -6 -6 -6 -6 -6 -6 -6 -6 -6 -6 -6 -6 -6 -7 -7 -7 -7 -8 -8 -8 -8 -8
-7 -7 -7 -7 -7 -7 -7 -7 -7 -7 -7 -7 -6 -6 -6 -6 -6 -6 -6 -6 -6 -6 -6 -6 -6 -6 -6 -7 -7 -7 -7 -7 -7 -7 -7 -7 -8 -8 -8 -8 -8 -8
-7 -7 -7 -7 -7 -7 -7 -7 -7 -7 -7 -7 -7 -6 -6 -6 -6 -6 -6 -6 -6 -6 -6 -6 -7 -7 -7 -7 -7 -7 -7 -7 -7 -7 -7 -8 -8 -8 -8 -8 -8 -8
-7 -7 -7 -7 -7 -7 -7 -7 -7 -7 -7 -7 -7 -7 -7 -7 -6 -6 -6 -6 -6 -6 -7 -7 -7 -7 -7 -7 -7 -7 -7 -7 -7 -7 -7 -8 -8 -8 -8 -8 -8 -8
-7 -7 -7 -7 -7 -7 -7 -7 -7 -7 -7 -7 -7 -7 -7 -7 -7 -6 -6 -6 -6 -7 -7 -7 -7 -7 -7 -7 -7 -7 -7 -7 -7 -7 -7 -8 -8 -8 -8 -8 -8 -8
-7 -7 -7 -7 -7 -7 -7 -7 -7 -7 -7 -7 -7 -7 -7 -7 -7 -7 -7 -6 -6 -7 -7 -7 -7 -7 -7 -7 -8 -7 -7 -7 -7 -7 -7 -8 -8 -8 -8 -8 -8 -8
Height
5927 5929 5930 5932 5933 5935 5936 5936 5937 5938 5939 5940 5942 5943 5944 5944 5945 5946 5946 5947 5947 5948 5948 5948 5948 5948 5948 5948 5948 5949 5949 5949 5949 5949 5949 5949 5949 5949 5948 5948 5948 5948
5926 5927 5929 5931 5932 5934 5935 5936 5937 5938 5939 5940 5941 5942 5943 5943 5944 5945 5946 5946 5947 5947 5948 5948 5948 5948 5948 5948 5948 5949 5949 5949 5950 5950 5950 5949 5949 5949 5949 5948 5948 5948
5924 5926 5928 5930 5932 5933 5934 5935 5936 5937 5938 5939 5940 5941 5942 5942 5943 5944 5945 5945 5946 5946 5947 5947 5948 5948 5948 5948 5948 5948 5949 5949 5949 5950 5950 5950 5950 5949 5949 5949 5948 5948
5923 5925 5927 5929 5931 5932 5933 5934 5935 5936 5937 5938 5939 5940 5940 5941 5942 5943 5943 5944 5945 5945 5946 5946 5947 5947 5947 5948 5948 5948 5948 5948 5949 5949 5949 5950 5950 5949 5949 5949 5948 5948
5922 5924 5925 5927 5929 5931 5933 5934 5935 5936 5937 5937 5938 5938 5939 5940 5941 5942 5942 5943 5943 5944 5944 5945 5945 5946 5946 5947 5947 5947 5948 5948 5948 5948 5949 5949 5949 5949 5949 5949 5948 5948
5921 5922 5924 5926 5928 5930 5932 5933 5934 5935 5936 5936 5937 5937 5938 5939 5940 5941 5941 5942 5942 5943 5943 5944 5944 5945 5945 5946 5946 5947 5947 5947 5947 5948 5948 5948 5949 5949 5949 5949 5948 5948
5920 5922 5923 5925 5927 5929 5930 5931 5933 5934 5935 5935 5936 5937 5937 5938 5938 5939 5940 5940 5941 5941 5942 5942 5943 5943 5944 5945 5945 5946 5946 5946 5947 5947 5947 5948 5948 5948 5948 5948 5948 5947
5918 5920 5922 5923 5926 5927 5929 5930 5931 5933 5934 5935 5936 5936 5936 5937 5937 5938 5939 5939 5940 5940 5941 5941 5941 5942 5942 5943 5944 5945 5945 5945 5946 5946 5947 5947 5947 5947 5947 5947 5947 5946
5916 5918 5920 5922 5924 5926 5927 5929 5930 5931 5933 5934 5935 5935 5936 5936 5937 5937 5938 5938 5939 5939 5939 5940 5940 5940 5941 5941 5942 5943 5944 5944 5945 5945 5946 5946 5946 5946 5946 5946 5946 5945
5915 5917 5919 5921 5923 5924 5926 5927 5929 5930 5932 5933 5934 5934 5935 5935 5936 5936 5937 5937 5937 5938 5938 5938 5939 5939 5939 5940 5941 5941 5942 5943 5943 5944 5945 5945 5945 5946 5946 5945 5945 5944
5913 5915 5918 5920 5921 5923 5924 5926 5927 5929 5930 5931 5932 5933 5934 5934 5935 5935 5936 5936 5936 5936 5937 5937 5937 5938 5938 5938 5939 5940 5940 5941 5941 5942 5943 5943 5944 5944 5944 5944 5944 5943
5912 5914 5916 5918 5919 5921 5922 5924 5926 5927 5929 5930 5931 5931 5932 5933 5933 5934 5934 5934 5934 5935 5935 5936 5936 5936 5936 5937 5937 5938 5939 5939 5940 5940 5941 5942 5942 5942 5943 5943 5943 5942
5911 5913 5914 5916 5917 5919 5920 5922 5924 5925 5927 5928 5929 5930 5930 5931 5931 5932 5932 5932 5933 5933 5934 5934 5935 5935 5935 5936 5936 5937 5937 5938 5938 5939 5939 5940 5940 5940 5941 5941 5941 5941
5909 5910 5912 5914 5915 5917 5918 5920 5922 5923 5925 5926 5927 5928 5928 5929 5929 5930 5930 5931 5931 5932 5932 5933 5933 5933 5934 5934 5935 5935 5936 5936 5937 5938 5938 5938 5939 5939 5939 5939 5939 5939
5906 5908 5909 5911 5913 5915 5917 5918 5920 5921 5922 5924 5925 5926 5926 5927 5927 5928 5929 5929 5930 5930 5930 5931 5932 5932 5932 5933 5933 5934 5934 5935 5935 5936 5937 5937 5937 5937 5938 5938 5938 5938
5903 5905 5907 5909 5912 5914 5915 5916 5917 5919 5920 5922 5923 5924 5924 5925 5926 5927 5927 5928 5928 5928 5929 5929 5930 5930 5930 5931 5932 5932 5933 5933 5934 5934 5935 5935 5935 5936 5936 5937 5937 5937
5902 5903 5905 5907 5909 5911 5912 5914 5915 5917 5918 5919 5921 5922 5923 5924 5924 5925 5926 5926 5926 5927 5927 5927 5928 5928 5929 5929 5930 5930 5931 5931 5932 5932 5933 5933 5934 5935 5935 5936 5936 5936
5900 5902 5903 5905 5907 5908 5910 5911 5913 5915 5916 5918 5919 5920 5921 5922 5923 5924 5924 5924 5925 5925 5926 5926 5926 5926 5927 5927 5928 5929 5929 5930 5930 5931 5932 5932 5933 5934 5934 5935 5935 5935
5899 5900 5902 5903 5905 5906 5907 5909 5911 5913 5914 5915 5916 5917 5919 5920 5921 5922 5922 5923 5923 5924 5924 5924 5924 5924 5925 5925 5926 5927 5927 5928 5929 5930 5930 5931 5932 5933 5933 5933 5934 5934
5898 5899 5901 5902 5903 5905 5906 5908 5909 5911 5912 5913 5914 5916 5917 5918 5919 5920 5921 5921 5921 5922 5922 5922 5922 5922 5923 5924 5924 5925 5926 5927 5927 5928 5929 5930 5931 5931 5932 5932 5932 5933
5897 5898 5900 5901 5902 5904 5905 5906 5908 5909 5910 5911 5912 5913 5915 5916 5917 5918 5919 5919 5919 5920 5920 5921 5921 5921 5921 5922 5922 5923 5924 5925 5926 5927 5927 5928 5929 5930 5930 5930 5931 5931
5896 5897 5899 5900 5901 5902 5904 5905 5906 5907 5908 5908 5910 5911 5912 5913 5914 5915 5916 5917 5918 5918 5919 5919 5919 5919 5920 5920 5921 5922 5923 5924 5925 5925 5926 5927 5927 5928 5928 5928 5928 5929
5895 5896 5898 5899 5900 5901 5902 5903 5904 5905 5905 5906 5907 5909 5909 5910 5911 5912 5913 5915 5915 5916 5917 5917 5917 5917 5918 5918 5919 5921 5922 5923 5923 5924 5925 5925 5926 5926 5926 5926 5927 5926
5893 5895 5896 5898 5899 5900 5901 5902 5902 5903 5904 5905 5906 5906 5907 5908 5908 5909 5911 5912 5913 5914 5914 5914 5914 5915 5916 5916 5918 5919 5920 5921 5922 5922 5923 5924 5924 5924 5924 5924 5924 5924
5891 5893 5894 5896 5897 5898 5899 5900 5900 5901 5902 5903 5903 5904 5905 5905 5906 5907 5908 5909 5910 5911 5911 5911 5912 5912 5913 5914 5915 5917 5918 5919 5919 5920 5921 5922 5922 5921 5921 5921 5921 5921
5888 5890 5892 5893 5894 5895 5896 5897 5898 5899 5900 5901 5901 5902 5902 5903 5904 5905 5906 5907 5908 5908 5909 5909 5909 5910 5911 5912 5913 5914 5915 5916 5917 5918 5919 5919 5918 5918 5918 5918 5918 5918
Wind_Speed
18 19 19 18 17 16 15 14 14 13 13 12 12 10 9 8 7 6 5 4 3 2 2 3 3 4 5 7 8 10 11 11 11 11 11 10 9 8 6 5 4 3
20 21 20 19 18 17 16 15 14 14 13 12 11 10 10 9 9 8 7 6 6 5 5 4 4 4 4 5 6 8 9 9 10 11 11 11 11 10 9 7 5 4
22 22 21 20 19 18 17 16 15 14 13 12 11 11 11 10 9 9 8 7 7 7 7 6 6 6 6 6 6 7 7 8 9 10 11 11 12 12 11 10 8 6
23 23 22 21 20 19 18 17 16 15 14 13 12 12 11 10 9 9 8 7 7 7 7 7 7 7 7 7 7 7 7 8 8 8 9 10 11 11 12 12 10 9
24 24 23 22 21 20 19 17 16 15 15 14 13 12 12 11 10 9 8 8 7 7 7 8 8 8 8 8 8 8 8 8 8 8 8 8 9 10 11 12 11 10
25 25 24 23 22 21 19 18 18 16 16 15 14 13 12 11 10 10 9 8 8 8 8 8 8 8 8 8 8 9 9 9 9 9 8 8 8 8 9 10 11 10
25 25 24 24 23 21 20 19 18 17 17 16 15 14 13 12 11 10 9 9 8 8 8 8 8 8 8 8 8 9 9 9 10 9 9 8 7 7 7 8 9 9
25 25 25 24 23 21 21 20 19 18 18 17 16 15 14 13 12 10 9 9 9 8 8 8 9 9 9 9 8 8 9 9 9 9 9 8 7 7 7 7 7 8
25 25 25 24 22 21 21 21 20 19 19 18 17 16 14 13 12 11 10 10 9 9 9 9 10 10 10 10 9 9 9 9 9 9 8 8 7 7 7 7 8 8
24 24 24 22 22 22 22 21 20 20 18 18 17 16 14 14 13 12 11 10 11 11 11 11 10 10 10 10 10 9 9 9 9 9 8 8 8 7 8 8 9 9
25 24 23 22 22 22 22 21 21 20 18 18 17 15 15 14 13 12 12 12 13 12 12 11 10 10 10 10 10 10 10 10 9 9 9 8 8 9 9 9 9 10
24 24 24 23 23 23 23 22 21 20 19 18 17 16 15 14 13 13 13 14 13 12 11 11 10 10 10 10 10 10 10 10 10 10 10 10 10 10 10 10 10 10
23 24 25 25 25 24 23 22 21 21 20 19 18 17 16 15 14 14 14 14 13 11 11 10 9 10 10 9 9 10 10 11 11 12 11 11 11 11 11 10 10 8
23 25 25 26 26 25 24 23 22 22 22 21 19 18 17 16 16 15 15 14 12 11 10 9 9 9 9 9 9 10 10 11 11 12 12 12 13 12 11 10 8 6
25 26 26 26 25 24 23 23 23 24 23 22 20 19 19 18 17 16 14 13 12 12 11 9 9 9 9 9 9 9 9 10 11 12 13 13 13 12 10 8 7 6
26 26 26 25 24 24 24 24 25 24 24 23 21 20 19 19 17 15 14 14 14 13 11 10 10 10 9 8 8 8 9 9 11 11 12 12 12 10 9 7 7 6
26 26 26 25 24 24 24 24 24 24 23 23 22 21 20 19 17 15 15 15 15 14 12 11 10 10 9 8 9 9 9 9 10 11 11 11 10 9 8 8 7 6
26 26 26 25 25 25 24 24 24 24 23 23 22 21 20 19 17 16 16 17 16 14 12 12 11 10 9 9 10 9 9 9 10 10 10 10 9 9 8 8 7 6
24 24 24 24 24 24 25 25 24 23 23 22 22 22 21 19 18 18 18 18 17 15 14 13 13 11 10 11 11 10 10 9 10 10 10 10 9 9 8 7 6 6
19 18 18 19 19 20 21 21 20 20 21 21 22 21 20 20 19 19 19 19 18 17 17 15 14 13 13 13 13 12 11 10 10 10 10 10 9 8 8 8 8 8
15 15 15 15 16 16 15 15 15 17 18 19 19 19 20 21 22 21 21 20 20 20 18 17 16 15 15 15 15 14 14 13 11 11 10 10 9 9 9 9 10 10
16 16 15 15 14 14 13 13 14 15 16 17 17 18 20 22 23 23 22 21 21 21 19 18 17 17 17 17 17 17 16 14 12 12 12 11 10 11 11 11 11 13
18 17 16 15 14 13 13 13 14 14 15 17 17 17 19 21 23 25 24 22 22 22 20 19 19 19 19 19 19 19 17 16 15 15 14 13 12 12 13 13 14 16
20 19 18 17 16 15 14 14 14 14 15 16 17 18 19 20 23 26 26 24 23 22 22 22 21 21 20 20 20 19 18 18 18 18 16 14 14 15 15 15 16 18
22 21 20 20 18 18 17 16 15 15 15 16 16 18 19 21 22 24 26 25 24 23 23 23 23 23 22 21 20 19 19 20 20 19 17 16 16 17 17 18 18 19
23 22 22 22 21 21 20 19 18 17 17 17 17 17 20 22 22 22 24 26 26 25 25 25 25 24 23 22 21 21 21 21 21 19 17 17 18 19 19 19 21 22
Wind_Direction
190 193 196 193 190 186 184 181 178 176 173 174 176 176 176 179 187 192 197 210 231 259 297 329 345 348 351 357 5 14 21 26 30 33 34 36 38 39 40 44 42 43
189 193 195 193 192 190 190 188 185 184 182 181 181 182 185 189 195 201 205 214 227 242 258 275 292 303 313 324 337 350 359 9 17 23 27 30 32 33 34 36 35 29
190 192 194 194 194 194 194 194 192 192 191 187 187 192 196 198 201 206 212 219 227 238 250 261 270 279 285 293 305 317 328 342 356 6 14 20 23 25 26 28 28 26
192 192 192 193 195 196 198 198 198 197 196 194 196 199 202 204 207 211 217 224 232 240 248 257 264 270 275 278 285 293 301 310 325 340 354 6 12 15 18 20 22 23
195 193 192 192 194 197 199 201 202 201 200 200 201 203 205 208 212 217 222 228 236 243 250 257 263 267 271 273 276 280 285 291 301 313 327 345 358 4 10 11 13 17
198 196 194 193 195 197 199 202 205 202 201 203 204 206 209 212 215 219 224 228 235 242 250 256 261 266 268 270 272 274 277 281 287 295 305 320 337 350 359 1 0 4
200 199 197 197 197 197 198 202 203 201 202 203 204 206 210 213 218 221 226 231 236 242 248 254 261 265 266 267 268 270 273 275 278 284 292 301 314 327 343 349 345 345
201 201 200 200 199 197 200 202 201 201 202 202 203 206 208 213 219 225 230 236 241 246 250 254 258 261 264 265 264 265 268 271 275 279 284 289 295 306 320 328 326 325
202 203 203 202 200 198 202 203 202 203 202 201 202 204 206 212 219 226 232 239 245 249 252 252 254 257 260 263 263 262 262 265 270 274 277 279 281 289 299 304 307 308
202 204 205 203 200 200 203 204 205 207 204 202 204 204 208 213 217 223 229 237 242 246 249 251 254 256 258 260 260 259 259 260 262 264 266 267 269 273 280 287 293 295
199 201 202 202 201 201 204 206 208 208 205 204 207 208 213 216 217 218 223 230 236 241 246 251 255 257 257 257 255 254 253 253 255 258 259 259 261 265 270 278 284 288
199 199 199 199 200 202 205 207 208 208 206 207 209 212 217 219 218 219 222 227 233 238 244 251 255 257 258 257 254 251 247 245 246 251 254 256 259 263 267 274 279 282
199 200 200 199 200 203 205 207 208 208 207 208 211 213 217 219 221 223 226 229 232 237 243 249 254 256 257 256 252 247 243 239 238 241 245 251 255 261 266 272 275 273
198 200 202 202 203 205 206 206 206 207 207 209 212 214 216 218 221 225 229 233 235 239 244 249 251 252 252 251 248 244 240 235 232 232 235 240 246 253 258 261 262 259
199 201 204 206 206 207 207 206 206 206 207 210 213 214 217 219 222 225 229 234 238 241 245 246 246 247 247 245 244 241 236 231 226 223 225 230 236 241 242 239 237 238
203 203 205 207 208 208 208 207 206 207 208 212 214 216 219 222 224 226 228 231 236 240 244 245 245 246 246 244 242 236 229 224 220 219 217 218 222 223 222 220 221 221
205 204 205 206 206 207 208 208 208 209 211 214 216 219 222 224 226 227 227 230 234 237 240 242 244 244 243 243 241 234 224 216 214 214 210 207 208 208 207 210 212 214
205 204 203 203 203 205 207 208 210 211 213 217 219 222 225 226 227 228 228 230 232 235 237 238 239 239 238 240 237 231 225 216 211 211 208 204 201 197 199 204 209 223
205 205 204 203 204 206 209 211 213 215 218 221 224 226 227 227 228 229 230 231 232 232 233 234 234 232 231 233 232 228 225 219 213 212 210 204 197 194 201 211 224 242
201 203 204 207 209 212 216 218 219 222 225 229 231 232 232 230 230 230 231 231 231 231 231 231 230 229 229 230 229 228 227 225 220 217 211 206 202 205 215 228 241 253
196 198 202 207 211 216 220 222 224 228 232 235 236 236 235 233 231 229 230 230 230 231 231 230 228 227 228 228 227 227 229 229 226 221 217 214 215 221 231 242 253 263
197 198 202 206 210 214 217 220 225 228 232 235 236 235 236 235 231 229 229 229 230 231 230 229 228 227 226 227 227 226 227 229 228 224 222 223 227 235 243 254 264 271
202 203 206 209 212 216 218 221 225 228 231 234 235 235 237 237 233 230 227 226 226 228 227 225 226 227 227 228 229 226 224 224 225 225 226 229 236 244 251 259 268 271
208 211 214 217 220 222 226 230 232 233 235 237 237 237 238 239 236 232 228 226 225 225 225 225 226 227 229 230 231 228 224 222 224 226 228 232 237 246 253 258 265 271
213 216 219 223 226 228 232 237 241 242 243 245 244 241 238 240 240 235 231 228 225 224 226 227 229 231 231 232 233 231 227 226 227 227 229 234 241 249 256 262 269 274
217 220 222 225 228 231 234 239 243 248 251 254 255 249 241 238 239 238 235 232 229 227 227 229 232 235 235 234 235 235 233 232 232 231 232 240 247 253 260 267 273 276